Home   Weather   New Haven   Past weeks

Flag for USA Past Weather in New Haven, Connecticut, USA — Yesterday and Last 2 Weeks

Now
38 °F

Low clouds.


Feels Like: 33 °F
Forecast: 35 / 44 °F
Wind: 7 mph from North

Location: Tweed-New Haven Airport

Current Time: Dec 7, 2016 at 9:46:34 am

Latest Report: Dec 7, 2016 at 9:01 am


Visibility: 10 mi

Pressure: 29.99 "Hg

Humidity: 93%

Dew Point: 36 °F

Location of New HavenLocation

Past Weather in New Haven — Graph

°F

New Haven Temperature Yesterday

Maximum temperature yesterday: 45 °F (at 12:53 pm)
Minimum temperature yesterday: 26 °F (at 4:53 am)
Average temperature yesterday: 38 °F

High & Low Weather Summary for the Past Weeks

 TemperatureHumidityPressure
High57 °F (Nov 29, 4:53 pm)100% (Nov 25, 11:00 pm)30.34 "Hg (Nov 25, 11:00 pm)
Low26 °F (Dec 6, 4:53 am)39% (Nov 22, 12:53 pm)29.44 "Hg (Dec 1, 3:53 am)
Average42 °F72%30.04 "Hg
* Reported Nov 22 7:53 am — Dec 7 7:53 am, New Haven, Weather by CustomWeather, © 2016

Note: Actual official high and low records may vary slightly from our data, if they occured in-between our weather recording intervals... More about our weather records

Advertising

New Haven Weather History for the Previous 24 Hours

Scroll right to see more
 ConditionsComfort  
Time TempWeatherWind HumidityBarometerVisibility
7:53 am
Wed, Dec 7
37 °FCloudy.7 mph96%29.96 "Hg10 mi
7:00 am36 °FMostly cloudy.10 mph97%29.95 "Hg10 mi
5:53 am36 °FLow clouds.7 mph97%29.94 "Hg9 mi
4:53 am37 °FFog.7 mph93%29.91 "Hg4 mi
4:02 am37 °FLight rain. Fog.8 mph93%29.90 "Hg6 mi
3:53 am37 °FLight rain. Fog.10 mph93%29.88 "Hg5 mi
2:53 am37 °FOvercast.12 mph93%29.87 "Hg10 mi
1:53 am37 °FOvercast.10 mph93%29.88 "Hg10 mi
12:53 am37 °FMostly cloudy.9 mph93%29.88 "Hg10 mi
11:53 pm
Tue, Dec 6
37 °FLight rain. Mostly cloudy.10 mph93%29.89 "Hg9 mi
10:53 pm37 °FLight rain. Overcast.10 mph93%29.92 "Hg8 mi
9:53 pm38 °FLight rain. Overcast.9 mph90%29.95 "Hg10 mi
8:53 pm39 °FLight rain. Mostly cloudy.10 mph86%29.97 "Hg9 mi
7:53 pm41 °FRain. Mostly cloudy.5 mph76%30.00 "Hg6 mi
6:53 pm42 °FOvercast.5 mph68%29.98 "Hg10 mi
5:53 pm44 °FOvercast.7 mph63%29.98 "Hg10 mi
4:53 pm44 °FOvercast.8 mph60%29.98 "Hg10 mi
3:53 pm43 °FOvercast.6 mph60%29.99 "Hg10 mi
2:53 pm44 °FMostly cloudy.7 mph58%30.01 "Hg10 mi
1:53 pm44 °FMostly cloudy.5 mph60%30.04 "Hg10 mi
12:53 pm45 °FMostly cloudy.7 mph56%30.07 "Hg10 mi
11:53 am44 °FBroken clouds.7 mph58%30.08 "Hg10 mi
10:53 am43 °FBroken clouds.5 mph62%30.11 "Hg10 mi
9:53 am40 °FScattered clouds.5 mph70%30.16 "Hg10 mi
Weather by CustomWeather, © 2016

See weather overviewHow to use our weather pages